Вернуться в каталог

THORAD AGENA D DEB

АктивенSSO
NORAD 4980·DEBRIS·🇺🇸 United States

Запущен Apr 8, 1970 с Vandenberg Space Force Base

Loading…

Ближайшие Пролёты (ближайшие 24 часа)

TLE

СвежийSource: Space-Track

Эпоха: Sep 14, 2026, 11:44 UTC

1 04980U 70025HA  26257.48895686  .00000221  00000-0  33966-3 0  9996
2 04980  99.2836  84.7332 0007671 279.0287 108.5078 13.62196873792387

Отслеживайте THORAD AGENA D DEB в реальном времени с AllMySat

Download on the App Store